CW1459 Weather Reports


Display with metric or nautical units.
time (UTC)temp
F
wind
direction
speed
MPH
gust
MPH
rain 1hr
in
rain 24hr
in
rain mn
in
humidity
%
barometer
mb
20190323000324 38 344 6.0 14.0 0.00 0.54 0.06 66 1006.7
20190322235315 38 333 9.0 18.0 0.00 0.99 0.06 67 1006.7
20190322234326 38 325 9.0 16.0 0.00 0.99 0.06 69 1006.6
20190322233314 38 319 11.0 18.0 0.00 0.99 0.06 69 1006.5
20190322232320 39 337 10.0 22.0 0.00 0.99 0.06 68 1006.4
20190322231314 40 320 14.0 30.0 0.00 0.99 0.06 66 1006.2
20190322230322 42 279 13.0 28.0 0.00 0.99 0.06 55 1005.9
20190322225325 42 311 15.0 30.0 0.00 1.35 0.06 53 1005.4
20190322224310 43 16 16.0 28.0 0.00 1.35 0.06 54 1005.0
20190322223317 43 330 11.0 24.0 0.00 1.35 0.06 57 1004.7
20190322222309 42 328 10.0 23.0 0.00 1.35 0.06 62 1004.5
20190322221319 42 319 11.0 18.0 0.00 1.35 0.06 65 1004.3
20190322220326 42 298 9.0 21.0 0.00 1.35 0.06 66 1004.1
20190322215313 42 273 16.0 23.0 0.00 1.52 0.06 64 1003.9
20190322214318 43 340 13.0 33.0 0.00 1.52 0.06 62 1003.6
20190322213308 44 263 12.0 23.0 0.00 1.52 0.06 61 1003.3
20190322212327 45 303 15.0 24.0 0.00 1.52 0.06 61 1003.1
20190322211311 44 313 14.0 21.0 0.00 1.52 0.06 64 1002.9
20190322210311 44 320 10.0 19.0 0.00 1.52 0.06 67 1002.7
20190322205324 43 322 11.0 19.0 0.00 1.74 0.06 68 1002.8
20190322204326 43 314 11.0 35.0 0.00 1.74 0.06 66 1002.7
20190322203326 44 323 16.0 34.0 0.00 1.74 0.06 63 1002.4
20190322202311 45 334 11.0 25.0 0.00 1.74 0.06 71 1002.0
20190322201307 45 310 9.0 16.0 0.00 1.74 0.06 78 1001.8
20190322200326 44 336 8.0 17.0 0.00 1.74 0.06 80 1001.8
20190322195325 43 325 9.0 17.0 0.00 1.93 0.06 80 1001.7
20190322194327 44 299 13.0 21.0 0.00 1.93 0.06 75 1001.5
20190322193310 45 309 11.0 21.0 0.00 1.93 0.06 76 1001.5
20190322192334 43 302 11.0 17.0 0.00 1.93 0.06 78 1001.6
20190322191307 43 276 9.0 15.0 0.00 1.93 0.06 77 1001.7
20190322190307 43 321 9.0 17.0 0.00 1.93 0.06 74 1001.7
20190322185309 44 317 11.0 19.0 0.00 2.05 0.06 71 1001.5
20190322184315 44 309 10.0 16.0 0.00 2.05 0.06 70 1001.5
20190322183309 45 321 10.0 23.0 0.00 2.05 0.06 69 1001.7
20190322182326 44 309 9.0 21.0 0.01 2.05 0.06 69 1001.9
20190322181313 44 320 10.0 15.0 0.01 2.05 0.06 70 1002.1
20190322180317 44 312 12.0 21.0 0.01 2.05 0.06 69 1002.2
20190322175321 45 286 12.0 23.0 0.01 2.23 0.06 66 1002.4
20190322174309 46 315 10.0 21.0 0.01 2.23 0.06 63 1002.3
20190322173309 46 319 15.0 23.0 0.01 2.23 0.06 61 1002.0
20190322172314 47 286 10.0 21.0 0.00 2.22 0.05 61 1001.9
20190322171317 46 310 15.0 23.0 0.00 2.22 0.05 61 1002.0
20190322170318 46 335 8.0 20.0 0.00 2.22 0.05 61 1002.1
20190322165318 46 304 11.0 24.0 0.00 2.42 0.05 61 1002.2
20190322164319 46 327 11.0 19.0 0.00 2.42 0.05 63 1002.2
20190322163323 45 335 11.0 23.0 0.00 2.42 0.05 65 1002.5
20190322162324 44 327 9.0 18.0 0.00 2.42 0.05 64 1002.8
20190322161308 44 335 10.0 21.0 0.00 2.42 0.05 63 1002.9
20190322160316 44 319 10.0 15.0 0.00 2.42 0.05 64 1002.9
20190322155321 44 324 6.0 16.0 0.00 2.60 0.05 64 1002.8
20190322154308 44 247 8.0 19.0 0.00 2.60 0.05 64 1002.8
20190322153315 44 309 6.0 16.0 0.00 2.60 0.05 67 1002.9
20190322152319 43 309 8.0 18.0 0.00 2.60 0.05 68 1002.9
20190322151322 43 344 12.0 19.0 0.00 2.60 0.05 67 1003.2
20190322150318 42 313 10.0 19.0 0.00 2.60 0.05 68 1003.2
20190322145317 42 294 7.0 25.0 0.00 2.73 0.05 68 1003.2
20190322144323 42 279 9.0 20.0 0.00 2.73 0.05 69 1003.2
20190322143323 42 348 8.0 14.0 0.00 2.73 0.05 69 1003.0
20190322142324 42 301 11.0 20.0 0.00 2.73 0.05 69 1003.0
20190322141325 42 252 6.0 14.0 0.00 2.73 0.05 70 1003.0
20190322140321 42 317 9.0 17.0 0.00 2.73 0.05 69 1002.8
20190322135319 41 311 10.0 16.0 0.00 2.88 0.05 70 1002.8
20190322134324 41 336 11.0 18.0 0.00 2.88 0.05 72 1002.7
20190322133326 41 317 6.0 12.0 0.00 2.88 0.05 72 1002.7
20190322132324 41 5 6.0 16.0 0.00 2.88 0.05 72 1002.6
20190322131325 41 315 8.0 15.0 0.00 2.88 0.05 72 1002.6
20190322130325 41 338 7.0 15.0 0.00 2.88 0.05 72 1002.6
20190322125325 41 302 5.0 17.0 0.00 2.99 0.05 71 1002.7
20190322124315 41 348 13.0 20.0 0.00 2.99 0.05 70 1002.6
20190322123320 41 311 9.0 19.0 0.00 2.99 0.05 70 1002.6
20190322122320 41 315 15.0 22.0 0.00 2.99 0.05 69 1002.5
20190322121322 41 319 11.0 20.0 0.00 2.99 0.05 69 1002.4
20190322120306 41 329 13.0 28.0 0.00 2.99 0.05 69 1002.4
20190322115325 41 279 18.0 29.0 0.00 3.11 0.05 70 1002.4
20190322114308 42 314 17.0 27.0 0.00 3.11 0.05 72 1002.3
20190322113312 42 319 14.0 19.0 0.00 3.11 0.05 73 1002.2
20190322112316 42 337 11.0 17.0 0.00 3.11 0.05 74 1002.0
20190322111322 42 309 9.0 22.0 0.00 3.11 0.05 74 1001.8
20190322110325 42 319 12.0 20.0 0.00 3.11 0.05 74 1001.7
20190322105308 42 339 12.0 19.0 0.00 3.12 0.05 74 1001.7
20190322104311 42 329 13.0 20.0 0.00 3.12 0.05 75 1001.6
20190322103322 42 316 10.0 19.0 0.00 3.12 0.05 76 1001.7
20190322102325 42 294 8.0 19.0 0.00 3.12 0.05 77 1001.5
20190322101309 42 313 11.0 18.0 0.00 3.12 0.05 79 1001.4
20190322100314 43 332 13.0 20.0 0.00 3.12 0.05 80 1001.3
20190322095322 43 332 10.0 16.0 0.00 3.16 0.05 80 1001.3
20190322094309 43 327 11.0 19.0 0.00 3.16 0.05 81 1001.2
20190322093313 42 306 8.0 18.0 0.00 3.16 0.05 83 1001.1
20190322092318 42 332 9.0 15.0 0.00 3.16 0.05 85 1000.9
20190322091309 42 324 8.0 16.0 0.00 3.16 0.05 87 1000.9
20190322090314 42 334 8.0 18.0 0.00 3.16 0.05 89 1000.8
20190322085319 42 302 8.0 14.0 0.00 3.16 0.05 90 1000.7
20190322084325 42 341 7.0 14.0 0.01 3.16 0.05 91 1000.7
20190322083316 41 335 8.0 18.0 0.01 3.16 0.05 92 1000.8
20190322082319 41 26 11.0 17.0 0.01 3.16 0.05 93 1000.9
20190322081323 41 327 7.0 15.0 0.02 3.16 0.05 93 1000.9
20190322080308 41 342 7.0 14.0 0.02 3.16 0.05 94 1001.0
20190322075317 41 5 9.0 15.0 0.02 3.16 0.05 94 1001.0
20190322074322 40 317 7.0 13.0 0.01 3.15 0.04 94 1001.2
20190322073309 40 13 9.0 17.0 0.02 3.15 0.04 94 1001.3
20190322072311 40 328 8.0 12.0 0.02 3.15 0.04 95 1001.4
20190322071321 40 321 8.0 14.0 0.01 3.14 0.03 95 1001.3
20190322070324 40 332 8.0 13.0 0.01 3.14 0.03 95 1001.4
20190322065326 40 331 7.0 16.0 0.01 3.14 0.03 95 1001.3
20190322064309 40 11 9.0 18.0 0.01 3.14 0.03 95 1001.3
20190322063316 39 334 7.0 15.0 0.00 3.13 0.02 95 1001.4
20190322062320 39 323 8.0 16.0 0.01 3.13 0.02 96 1001.5
20190322061322 39 340 7.0 13.0 0.01 3.13 0.02 96 1001.4
20190322060325 39 343 7.0 12.0 0.01 3.13 0.02 96 1001.4
20190322055311 39 324 7.0 12.0 0.02 3.13 0.02 96 1001.3
20190322054316 39 341 9.0 15.0 0.02 3.13 0.02 96 1001.3
20190322053318 39 321 5.0 12.0 0.02 3.13 0.02 96 1001.3
20190322052320 39 5 5.0 9.0 0.01 3.12 0.01 96 1001.4
20190322051307 39 312 6.0 13.0 0.01 3.12 0.01 96 1001.5
20190322050311 39 344 4.0 10.0 0.01 3.12 0.01 96 1001.6
20190322045313 39 350 5.0 15.0 0.01 3.11 0.00 96 1001.7
20190322044318 38 329 9.0 14.0 0.01 3.11 0.00 96 1001.8
20190322043326 38 348 8.0 13.0 0.02 3.11 0.00 96 1001.9
20190322042308 38 360 5.0 10.0 0.02 3.11 0.00 96 1002.0
20190322041311 38 5 7.0 11.0 0.03 3.11 0.00 96 1002.0
20190322040315 38 342 6.0 10.0 0.04 3.11 0.00 96 1002.0
20190322035321 38 9 7.0 13.0 0.04 3.10 3.10 96 1002.0
20190322034326 38 340 7.0 16.0 0.05 3.10 3.10 96 1002.0
20190322033319 38 349 5.0 15.0 0.06 3.09 3.09 96 1002.1
20190322032322 38 350 9.0 13.0 0.07 3.09 3.09 96 1002.2
20190322031311 38 350 10.0 15.0 0.08 3.08 3.08 96 1002.2
20190322030313 38 38 8.0 14.0 0.07 3.07 3.07 96 1002.2
20190322025316 38 25 7.0 11.0 0.07 3.06 3.06 96 1002.3
20190322024319 38 360 6.0 10.0 0.07 3.05 3.05 96 1002.5
20190322023327 38 336 4.0 15.0 0.05 3.03 3.03 96 1002.7
20190322022310 38 332 9.0 13.0 0.06 3.02 3.02 95 1002.7
20190322021314 38 347 8.0 14.0 0.06 3.00 3.00 96 1002.8
20190322020318 38 281 5.0 11.0 0.09 3.00 3.00 96 1003.0
20190322015324 39 346 5.0 12.0 0.10 2.99 2.99 96 1003.0
20190322014326 39 350 6.0 13.0 0.11 2.98 2.98 96 1003.1
20190322013310 39 331 8.0 14.0 0.12 2.97 2.97 96 1003.0
20190322012314 39 318 6.0 11.0 0.17 2.96 2.96 96 1003.1
20190322011315 39 350 5.0 11.0 0.21 2.94 2.94 96 1003.2
20190322010319 39 19 4.0 11.0 0.25 2.91 2.91 96 1003.2
20190322005322 39 12 7.0 10.0 0.33 2.89 2.89 96 1003.3
20190322004328 39 327 5.0 10.0 0.41 2.87 2.87 95 1003.4
20190322003312 39 321 4.0 10.0 0.44 2.85 2.85 95 1003.5
20190322002316 39 327 5.0 8.0 0.45 2.79 2.79 95 1003.5
20190322001325 40 350 4.0 6.0 0.46 2.73 2.73 95 1003.6